Abha, Saudi Arabia

8:56 PM AST on July 21, 2019 (GMT +0300)
Abha

Weather History for OEAB - May, 2019

Change the Weather History Date:

Wednesday, May 1, 2019

  Actual Average Record
Temperature  
Mean Temperature 72 °F -  
Max Temperature 82 °F 80 °F 84 °F (2007)
Min Temperature 63 °F 58 °F 53 °F (2011)
Cooling Degree Days 8    
Growing Degree Days 22 (Base 50)    
Moisture  
Dew Point 43 °F    
Average Humidity 35    
Maximum Humidity 52    
Minimum Humidity 20    
Precipitation  
Precipitation 0.00 in - - ()
Sea Level Pressure  
Sea Level Pressure 30.27 in    
Wind  
Wind Speed 5 mph ()    
Max Wind Speed 21 mph    
Max Gust Speed -    
Visibility 6.2 miles    
Events      
Averages and records for this station are not official NWS values.
T = Trace of Precipitation, MM = Missing Value Source: Averaged Metar Reports

Daily Weather History Graph

Daily Weather History Graph

Search for Another Location

Airport or City:

Astronomy

May. 01, 2019 Rise Set
Actual Time 5:42 AM AST 6:30 PM AST
Civil Twilight 5:20 AM AST 6:53 PM AST
Nautical Twilight 4:53 AM AST 7:20 PM AST
Astronomical Twilight 4:26 AM AST 7:47 PM AST
Moon 3:31 AM AST (5/1) 3:38 PM AST (5/1)
Length of Visible Light 13h 33m
Length of Day
12h 47m
Waning Crescent, 13% of the Moon is Illuminated
May 1
Waning Crescent
May 5
New
May 12
First Quarter
May 19
Full
May 26
Last Quarter

Hourly Weather History & Observations

Time (AST) Temp. Dew Point Humidity Pressure Visibility Wind Dir Wind Speed Gust Speed Precip Events Conditions
12:00 AM 67 °F 45 °F 33%  in 6 mi West 4.6 mph - -   Scattered Clouds
12:00 AM 68.0 °F 44.6 °F 43% 30.30 in 6.2 mi West 4.6 mph - N/A   Partly Cloudy
1:00 AM 68.0 °F 44.6 °F 43% 30.27 in 6.2 mi South 3.5 mph - N/A   Partly Cloudy
2:00 AM 66.2 °F 48.2 °F 52% 30.24 in - South 3.5 mph - N/A   Clear
3:00 AM 66.2 °F 46.4 °F 49% 30.24 in 6.2 mi Calm Calm - N/A   Scattered Clouds
4:00 AM 68.0 °F 44.6 °F 43% 30.24 in 6.2 mi Calm Calm - N/A   Scattered Clouds
5:00 AM 66.2 °F 44.6 °F 46% 30.24 in 6.2 mi Calm Calm - N/A   Scattered Clouds
6:00 AM 64.4 °F 46.4 °F 52% 30.24 in - SSW 4.6 mph - N/A   Clear
7:00 AM 68.0 °F 44.6 °F 43% 30.27 in - SSW 5.8 mph - N/A   Clear
8:00 AM 69.8 °F 46.4 °F 43% 30.30 in - SSW 4.6 mph - N/A   Clear
9:00 AM 78 °F 45 °F 20%  in 6 mi East 4.6 mph - -  
9:00 AM 78.8 °F 44.6 °F 30% 30.30 in - East 4.6 mph - N/A   Clear
10:00 AM 77.0 °F 41.0 °F 28% 30.30 in - Calm Calm - N/A   Clear
11:00 AM 78.8 °F 42.8 °F 28% 30.30 in 6.2 mi South 8.1 mph - N/A   Partly Cloudy
12:00 PM 80.6 °F 41.0 °F 24% 30.30 in 6.2 mi South 15.0 mph - N/A   Partly Cloudy
1:00 PM 82.4 °F 39.2 °F 21% 30.27 in 6.2 mi South 10.4 mph - N/A   Partly Cloudy
2:00 PM 82.4 °F 41.0 °F 23% 30.27 in 6.2 mi South 13.8 mph - N/A   Scattered Clouds
3:00 PM 82.4 °F 41.0 °F 23% 30.24 in 6.2 mi South 17.3 mph - N/A   Scattered Clouds
4:00 PM 82.4 °F 37.4 °F 20% 30.24 in 6.2 mi SSW 19.6 mph - N/A   Scattered Clouds
5:00 PM 80.6 °F 41.0 °F 24% 30.24 in 6.2 mi South 20.7 mph - N/A   Scattered Clouds
6:00 PM 77.0 °F 41.0 °F 28% 30.24 in 6.2 mi South 12.7 mph - N/A   Partly Cloudy
7:00 PM 73.4 °F 42.8 °F 33% 30.27 in 6.2 mi SSW 11.5 mph - N/A   Partly Cloudy
8:00 PM 71.6 °F 42.8 °F 35% 30.27 in - South 6.9 mph - N/A   Clear
9:00 PM 69.8 °F 44.6 °F 40% 30.30 in - South 3.5 mph - N/A   Clear
10:00 PM 69.8 °F 44.6 °F 40% 30.33 in - ESE 6.9 mph - N/A   Clear
11:00 PM 69.8 °F 44.6 °F 40% 30.33 in 6.2 mi SE 6.9 mph - N/A   Partly Cloudy